Location: Peebles
(55.6412°N, 3.1714°W)
Time: 02:57:14
(UTC+01:00)

HODOYOSHI 3 - Visible Passes

Search period start: 01 July 2022 00:00
Search period end: 11 July 2022 00:00
Orbit: 606 x 659 km, 97.6° (Epoch: 30 June)

Date Brightness Start Highest point End Pass type
(mag) Time Alt. Az. Time Alt. Az. Time Alt. Az.
02 Jul ? 22:59:43 10° N 23:03:02 22° WNW 23:06:23 10° WSW visible
03 Jul ? 23:21:21 10° NNW 23:23:58 16° NW 23:26:38 10° W visible
04 Jul ? 23:43:22 10° NNW 23:44:53 12° NW 23:46:24 10° WNW visible
06 Jul ? 22:47:50 10° N 22:51:28 26° WNW 22:55:07 10° WSW visible
07 Jul ? 23:09:22 10° N 23:12:27 19° NW 23:15:32 10° W visible
08 Jul ? 23:31:07 10° NNW 23:33:22 14° NW 23:35:38 10° W visible
09 Jul ? 23:53:51 10° NW 23:54:14 10° NW 23:54:38 10° NW visible
